Weather History for KIBM - June, 2012

Change the Weather History Date:

Sunday, June 10, 2012

  Actual Average (KSNY) Record (KSNY)
Temperature  
Mean Temperature 62 °F 66 °F  
Max Temperature 75 °F 80 °F 100 °F (2013)
Min Temperature 50 °F 51 °F 37 °F (1950)
Degree Days  
Heating Degree Days 2 3  
Month to date heating degree days 35  
Since 1 June heating degree days 35  
Since 1 July heating degree days 6197  
Cooling Degree Days 0 3  
Month to date cooling degree days 24  
Year to date cooling degree days 46  
Since 1 June cooling degree days 24  
Growing Degree Days 12 (Base 50)    
Moisture  
Dew Point 24 °F    
Average Humidity 31    
Maximum Humidity 67    
Minimum Humidity 8    
Precipitation  
Precipitation 0.00 in 0.11 in 1.78 in (1986)
Month to date precipitation 1.10  
Year to date precipitation 7.86  
Sea Level Pressure  
Sea Level Pressure 29.85 in    
Wind  
Wind Speed 22 mph (NW)    
Max Wind Speed 33 mph    
Max Gust Speed 47 mph    
Visibility 10 miles    
Events      
T = Trace of Precipitation, MM = Missing Value Source: NWS Daily Summary

Daily Weather History Graph

Daily Weather History Graph

Search for Another Location

Airport or City:

Trip Planner

Search our weather history database for the weather conditions in past years. The results will help you decide how hot, cold, wet, or windy it might be!

Date:

Astronomy

Jun. 10, 2012 Rise Set
Actual Time 6:21 AM CDT 9:27 PM CDT
Civil Twilight 5:47 AM CDT 10:00 PM CDT
Nautical Twilight 5:05 AM CDT 10:43 PM CDT
Astronomical Twilight 4:14 AM CDT 11:34 PM CDT
Moon 1:18 AM CDT (6/10) 1:15 PM CDT (6/10)
Length of Visible Light 16h 12m
Length of Day
15h 05m
Waning Gibbous, 58% of the Moon is Illuminated
Jun 10
Waning Gibbous
Jun 11
Last Quarter
Jun 19
New
Jun 26
First Quarter
Jul 3
Full

Hourly Weather History & Observations

Time (CDT) Temp. Dew Point Humidity Pressure Visibility Wind Dir Wind Speed Gust Speed Precip Events Conditions
12:15 AM 65.1 °F 43.9 °F 46% 29.53 in 10.0 mi West 13.8 mph 24.2 mph N/A   Clear
12:35 AM 69.8 °F 39.6 °F 33% 29.53 in 10.0 mi WNW 10.4 mph - N/A   Clear
12:55 AM 68.5 °F 37.9 °F 33% 29.53 in 10.0 mi West 13.8 mph - N/A   Clear
1:15 AM 64.9 °F 43.0 °F 45% 29.56 in 10.0 mi NW 23.0 mph 31.1 mph N/A   Clear
1:35 AM 59.9 °F 43.7 °F 55% 29.58 in 10.0 mi NW 29.9 mph 35.7 mph N/A   Clear
1:55 AM 56.8 °F 41.4 °F 56% 29.59 in 7.0 mi NW 31.1 mph 43.7 mph N/A   Clear
2:15 AM 56.3 °F 43.5 °F 62% 29.63 in 10.0 mi NNW 29.9 mph 43.7 mph N/A   Clear
2:35 AM 54.7 °F 41.2 °F 60% 29.65 in 10.0 mi NNW 33.4 mph 42.6 mph N/A   Clear
2:55 AM 52.9 °F 40.1 °F 62% 29.68 in 10.0 mi NNW 31.1 mph 41.4 mph N/A   Clear
3:15 AM 52.2 °F 40.6 °F 65% 29.70 in 10.0 mi NNW 27.6 mph 35.7 mph N/A   Clear
3:35 AM 51.4 °F 40.6 °F 67% 29.72 in 10.0 mi NNW 28.8 mph 40.3 mph N/A   Mostly Cloudy
3:55 AM 51.3 °F 40.1 °F 66% 29.74 in 10.0 mi NNW 28.8 mph 36.8 mph N/A   Overcast
4:15 AM 51.8 °F 39.2 °F 62% 29.75 in 10.0 mi NNW 31.1 mph 40.3 mph N/A   Overcast
4:35 AM 51.8 °F 39.2 °F 62% 29.77 in 10.0 mi North 32.2 mph 39.1 mph N/A   Overcast
4:55 AM 51.4 °F 38.5 °F 61% 29.78 in 10.0 mi North 32.2 mph 38.0 mph N/A   Overcast
5:15 AM 51.6 °F 38.3 °F 60% 29.80 in 10.0 mi North 27.6 mph 36.8 mph N/A   Overcast
5:35 AM 51.3 °F 37.9 °F 60% 29.81 in 10.0 mi North 26.5 mph 35.7 mph N/A   Overcast
5:55 AM 51.3 °F 37.6 °F 60% 29.83 in 10.0 mi North 26.5 mph 35.7 mph N/A   Overcast
6:15 AM 50.5 °F 37.6 °F 61% 29.83 in 10.0 mi North 27.6 mph 35.7 mph N/A   Overcast
6:35 AM 50.9 °F 37.6 °F 60% 29.84 in 10.0 mi North 21.9 mph 31.1 mph N/A   Overcast
6:55 AM 50.9 °F 37.8 °F 61% 29.85 in 10.0 mi NNW 20.7 mph 33.4 mph N/A   Overcast
7:15 AM 50.5 °F 37.6 °F 61% 29.86 in 10.0 mi NNW 25.3 mph 32.2 mph N/A   Overcast
7:35 AM 50.5 °F 38.1 °F 62% 29.87 in 10.0 mi North 23.0 mph 31.1 mph N/A   Overcast
7:55 AM 50.0 °F 38.1 °F 64% 29.88 in 10.0 mi North 19.6 mph 27.6 mph N/A   Scattered Clouds
8:15 AM 51.6 °F 38.3 °F 60% 29.89 in 10.0 mi North 23.0 mph 27.6 mph N/A   Clear
8:35 AM 52.0 °F 38.3 °F 60% 29.91 in 10.0 mi North 23.0 mph 31.1 mph N/A   Clear
8:55 AM 53.1 °F 38.7 °F 58% 29.92 in 10.0 mi NNW 20.7 mph 29.9 mph N/A   Scattered Clouds
9:15 AM 54.1 °F 37.9 °F 54% 29.93 in 10.0 mi NNW 20.7 mph 27.6 mph N/A   Mostly Cloudy
9:35 AM 54.7 °F 37.2 °F 52% 29.94 in 10.0 mi NNW 21.9 mph 27.6 mph N/A   Mostly Cloudy
9:55 AM 55.4 °F 22.8 °F 28% 29.94 in 10.0 mi NNW 23.0 mph 33.4 mph N/A   Scattered Clouds
10:15 AM 56.7 °F 18.9 °F 23% 29.94 in 10.0 mi NW 23.0 mph 33.4 mph N/A   Clear
10:35 AM 57.2 °F 20.1 °F 24% 29.94 in 10.0 mi NW 21.9 mph 34.5 mph N/A   Clear
10:55 AM 59.4 °F 21.4 °F 23% 29.94 in 10.0 mi NW 24.2 mph 35.7 mph N/A   Clear
11:15 AM 60.3 °F 21.2 °F 22% 29.93 in 10.0 mi NW 25.3 mph 35.7 mph N/A   Clear
11:35 AM 61.2 °F 20.7 °F 21% 29.93 in 10.0 mi NW 27.6 mph 35.7 mph N/A   Clear
11:55 AM 62.1 °F 14.7 °F 16% 29.93 in 10.0 mi WNW 31.1 mph 40.3 mph N/A   Clear
12:15 PM 63.3 °F 12.4 °F 14% 29.93 in 10.0 mi WNW 28.8 mph 40.3 mph N/A   Clear
12:35 PM 64.0 °F 12.2 °F 13% 29.92 in 10.0 mi WNW 26.5 mph 38.0 mph N/A   Clear
12:55 PM 64.9 °F 13.5 °F 14% 29.92 in 10.0 mi WNW 25.3 mph 35.7 mph N/A   Clear
1:15 PM 66.6 °F 14.9 °F 14% 29.91 in 10.0 mi WNW 25.3 mph 32.2 mph N/A   Clear
1:35 PM 68.0 °F 14.7 °F 13% 29.90 in 10.0 mi WNW 24.2 mph 33.4 mph N/A   Clear
1:55 PM 69.4 °F 13.5 °F 12% 29.90 in 10.0 mi WNW 26.5 mph 33.4 mph N/A   Clear
2:15 PM 70.2 °F 12.9 °F 11% 29.89 in 10.0 mi West 25.3 mph 36.8 mph N/A   Clear
2:35 PM 70.7 °F 10.8 °F 10% 29.89 in 10.0 mi NW 19.6 mph 36.8 mph N/A   Clear
2:55 PM 71.4 °F 10.0 °F 9% 29.89 in 10.0 mi WNW 31.1 mph 38.0 mph N/A   Clear
3:15 PM 72.1 °F 11.5 °F 10% 29.89 in 10.0 mi West 27.6 mph 32.2 mph N/A   Clear
3:35 PM 72.0 °F 11.5 °F 10% 29.89 in 10.0 mi WNW 15.0 mph 34.5 mph N/A   Clear
3:55 PM 73.6 °F 13.5 °F 10% 29.89 in 10.0 mi West 20.7 mph 28.8 mph N/A   Clear
4:15 PM 73.4 °F 11.8 °F 9% 29.88 in 10.0 mi NW 21.9 mph 32.2 mph N/A   Clear
4:35 PM 73.6 °F 11.8 °F 9% 29.87 in 10.0 mi NW 17.3 mph 27.6 mph N/A   Clear
4:55 PM 73.9 °F 10.6 °F 9% 29.87 in 10.0 mi WNW 20.7 mph 47.2 mph N/A   Clear
5:15 PM 74.5 °F 10.2 °F 8% 29.87 in 10.0 mi West 27.6 mph 33.4 mph N/A   Clear
5:35 PM 75.0 °F 9.7 °F 8% 29.88 in 10.0 mi West 25.3 mph 33.4 mph N/A   Clear
5:55 PM 73.9 °F 9.0 °F 8% 29.88 in 10.0 mi West 21.9 mph 28.8 mph N/A   Clear
6:15 PM 73.4 °F 8.6 °F 8% 29.88 in 10.0 mi WNW 20.7 mph 32.2 mph N/A   Clear
6:35 PM 72.7 °F 8.2 °F 8% 29.88 in 10.0 mi WNW 20.7 mph 40.3 mph N/A   Clear
6:55 PM 72.1 °F 8.1 °F 8% 29.88 in 10.0 mi WNW 28.8 mph 36.8 mph N/A   Clear
7:15 PM 71.4 °F 5.4 °F 8% 29.89 in 10.0 mi West 25.3 mph 29.9 mph N/A   Clear
7:35 PM 70.3 °F 12.0 °F 11% 29.89 in 10.0 mi NW 12.7 mph 20.7 mph N/A   Clear
7:55 PM 68.5 °F 12.9 °F 12% 29.90 in 10.0 mi NW 13.8 mph 19.6 mph N/A   Clear
8:15 PM 67.3 °F 12.9 °F 12% 29.92 in 10.0 mi NW 13.8 mph 19.6 mph N/A   Clear
8:35 PM 67.5 °F 13.3 °F 12% 29.92 in 10.0 mi NW 16.1 mph 24.2 mph N/A   Clear
8:55 PM 67.8 °F 14.0 °F 13% 29.92 in 10.0 mi NW 15.0 mph 23.0 mph N/A   Clear
9:15 PM 67.1 °F 14.0 °F 13% 29.94 in 10.0 mi NW 13.8 mph 20.7 mph N/A   Clear
9:35 PM 65.7 °F 14.0 °F 14% 29.94 in 10.0 mi WNW 10.4 mph - N/A   Clear
9:55 PM 64.0 °F 14.4 °F 15% 29.94 in 10.0 mi NW 8.1 mph - N/A   Clear
10:15 PM 63.5 °F 13.1 °F 14% 29.95 in 10.0 mi NW 13.8 mph 18.4 mph N/A   Clear
10:35 PM 63.0 °F 12.4 °F 14% 29.96 in 10.0 mi NW 18.4 mph 25.3 mph N/A   Clear
10:55 PM 62.1 °F 13.3 °F 15% 29.98 in 10.0 mi NW 13.8 mph 23.0 mph N/A   Clear
11:15 PM 61.0 °F 16.3 °F 18% 29.99 in 10.0 mi NW 12.7 mph 19.6 mph N/A   Clear
11:35 PM 59.5 °F 19.2 °F 21% 30.00 in 10.0 mi NW 18.4 mph 26.5 mph N/A   Clear
11:55 PM 59.4 °F 19.4 °F 21% 30.00 in 10.0 mi NW 18.4 mph 25.3 mph N/A   Clear